Accueil
METAR-TAF:

METAR-TAF

Aéroports :

Akulivik, Québec, Canada

latitude: 60-49N, longitude: 078-09W, altitude: 20 m

Observation

Le bulletin a été fait il y a 12 heures et 23 minutes, à 20:00 UTC
Vent 7 kt de sud-est
Température -13°C
Humidité 85%
Pression 1012 hPa
Visibilité: 12.9 km
Nuages fragmentés à une hauteur de 4500 ft

METAR: CYKO 152000Z 14007KT 8SM BKN045 M13/M15 A2988 RMK SC5 LAST OB NEXT / 161300 UTC SLP123

Heure: 03:23 (08:23 UTC)


TAF: absent

Observations et prévisions météorologiques de plus de 4000 aéroports (messages METAR et TAF).

Les stations disponibles sont représentées par des disques jaunes et rouges sur la carte.

Passer la souris dessus pour voir le nom de la station.

Cliquer dessus pour voir les observations et prévisions météorologiques.

Pour changer de carte: cliquez sur les boutons verts avec une croix noire pour zoomer, sur le bouton vert avec un tiret pour effectuer un zoom arrière, ou sur les flèches vertes pour les cartes adjacentes.


METAR-TAF: